Lawrence, MA

11:38 PM EDT on September 27, 2016 (GMT -0400)
Lawrence Municipal

Weather History for KLWM - January, 2014

Change the Weather History Date:

Friday, January 3, 2014

  Actual Average Record
Temperature  
Mean Temperature 6 °F -  
Max Temperature 12 °F 36 °F 68 °F (2000)
Min Temperature 1 °F 19 °F 1 °F (2014)
Degree Days  
Heating Degree Days 58    
Moisture  
Dew Point -6 °F    
Average Humidity 62    
Maximum Humidity 76    
Minimum Humidity 38    
Precipitation  
Precipitation 0.01 in - - ()
Sea Level Pressure  
Sea Level Pressure 29.99 in    
Wind  
Wind Speed 15 mph (NNW)    
Max Wind Speed 22 mph    
Max Gust Speed 33 mph    
Visibility 5 miles    
Events Snow    
Averages and records for this station are not official NWS values.
T = Trace of Precipitation, MM = Missing Value Source: NWS Daily Summary

Daily Weather History Graph

Daily Weather History Graph

Search for Another Location

Airport or City:

Trip Planner

Search our weather history database for the weather conditions in past years. The results will help you decide how hot, cold, wet, or windy it might be!

Date:

Astronomy

Jan. 03, 2014 Rise Set
Actual Time 7:15 AM EST 4:23 PM EST
Civil Twilight 6:43 AM EST 4:55 PM EST
Nautical Twilight 6:07 AM EST 5:30 PM EST
Astronomical Twilight 5:33 AM EST 6:04 PM EST
Moon 8:34 AM EST (1/3) 7:33 PM EST (1/3)
Length of Visible Light 10h 12m
Length of Day
9h 08m
Waxing Crescent, 8% of the Moon is Illuminated
Jan 3
Waxing Crescent
Jan 7
First Quarter
Jan 15
Full
Jan 24
Last Quarter
Jan 30
New

Hourly Weather History & Observations

Time (EST) Temp. Windchill Dew Point Humidity Pressure Visibility Wind Dir Wind Speed Gust Speed Precip Events Conditions
12:54 AM 1.0 °F -19.3 °F -7.1 °F 69% 29.90 in 0.8 mi North 17.3 mph 23.0 mph 0.00 in Snow Light Snow
1:54 AM 1.0 °F -18.7 °F -6.0 °F 72% 29.87 in 1.0 mi North 16.1 mph 25.3 mph 0.00 in Snow Light Snow
2:54 AM 1.0 °F -17.3 °F -6.0 °F 72% 29.84 in 1.0 mi North 13.8 mph 25.3 mph 0.00 in Snow Light Snow
3:05 AM 1.0 °F -18.7 °F -6.0 °F 72% 29.81 in 0.8 mi North 16.1 mph 27.6 mph 0.00 in Snow Light Snow
3:17 AM 1.9 °F -18.1 °F -6.0 °F 69% 29.81 in 0.8 mi North 17.3 mph - 0.00 in Snow Light Snow
3:54 AM 1.9 °F -17.5 °F -5.1 °F 72% 29.81 in 0.8 mi NNE 16.1 mph 25.3 mph 0.01 in Snow Light Snow
4:54 AM 1.9 °F -18.1 °F -4.0 °F 76% 29.78 in 0.8 mi North 17.3 mph 25.3 mph 0.00 in Snow Light Snow
5:21 AM 3.0 °F -15.5 °F -4.0 °F 73% 29.79 in 1.0 mi North 15.0 mph 24.2 mph 0.00 in Snow Light Snow
5:54 AM 3.0 °F -18.3 °F -4.0 °F 73% 29.82 in 1.0 mi North 20.7 mph 26.5 mph 0.00 in Snow Light Snow
6:26 AM 3.9 °F -14.3 °F -4.0 °F 70% 29.82 in 1.2 mi North 15.0 mph 21.9 mph 0.00 in Snow Light Snow
6:41 AM 3.9 °F -16.6 °F -2.9 °F 73% 29.83 in 0.8 mi North 19.6 mph 25.3 mph 0.00 in Snow Light Snow
6:54 AM 3.9 °F -13.0 °F -2.9 °F 73% 29.84 in 0.8 mi North 12.7 mph - 0.00 in Snow Light Snow
7:16 AM 3.9 °F -13.7 °F -2.9 °F 73% 29.84 in 1.0 mi North 13.8 mph - 0.00 in Snow Light Snow
7:29 AM 3.9 °F -13.7 °F -2.9 °F 73% 29.85 in 1.5 mi North 13.8 mph 23.0 mph 0.00 in Snow Light Snow
7:42 AM 3.9 °F -17.1 °F -4.0 °F 70% 29.86 in 2.0 mi North 20.7 mph 32.2 mph 0.00 in Snow Light Snow
7:54 AM 5.0 °F -14.7 °F -2.9 °F 70% 29.88 in 1.8 mi North 18.4 mph 26.5 mph 0.00 in Snow Light Snow
8:38 AM 5.0 °F -13.6 °F -2.9 °F 70% 29.88 in 2.0 mi North 16.1 mph 24.2 mph 0.00 in Snow Light Snow
8:54 AM 6.1 °F -14.8 °F -2.0 °F 69% 29.91 in 1.8 mi North 21.9 mph 27.6 mph 0.00 in Snow Light Snow
9:01 AM 6.1 °F -11.6 °F -2.0 °F 69% 29.89 in 1.5 mi North 15.0 mph 27.6 mph 0.00 in Snow Light Snow
9:54 AM 7.0 °F -11.6 °F -2.0 °F 67% 29.94 in 1.8 mi North 17.3 mph 23.0 mph 0.00 in Snow Light Snow
10:01 AM 7.0 °F -10.4 °F -2.0 °F 67% 29.93 in 1.8 mi North 15.0 mph 33.4 mph 0.00 in Snow Light Snow
10:08 AM 8.1 °F -8.4 °F -2.0 °F 64% 29.93 in 2.0 mi North 13.8 mph 25.3 mph 0.00 in Snow Light Snow
10:38 AM 8.1 °F -5.3 °F -0.9 °F 67% 29.95 in 3.0 mi NNW 9.2 mph 24.2 mph 0.00 in Snow Light Snow
10:54 AM 9.0 °F -8.5 °F -2.0 °F 61% 29.96 in 3.0 mi North 16.1 mph 25.3 mph 0.00 in Snow Light Snow
11:41 AM 10.0 °F -7.6 °F -2.0 °F 58% 29.96 in 10.0 mi North 17.3 mph 21.9 mph 0.00 in   Overcast
11:54 AM 10.9 °F -5.4 °F -2.9 °F 54% 29.97 in 10.0 mi North 15.0 mph 25.3 mph 0.00 in   Mostly Cloudy
12:54 PM 12.0 °F -2.7 °F -0.9 °F 56% 30.00 in 10.0 mi NW 12.7 mph - 0.00 in   Scattered Clouds
1:54 PM 12.0 °F -2.0 °F -2.9 °F 51% 30.04 in 9.0 mi WNW 11.5 mph 24.2 mph 0.00 in   Partly Cloudy
2:54 PM 12.0 °F -2.0 °F -4.0 °F 49% 30.09 in 10.0 mi NW 11.5 mph 23.0 mph 0.00 in   Clear
3:54 PM 10.0 °F -4.5 °F -9.9 °F 40% 30.16 in 10.0 mi NW 11.5 mph 21.9 mph N/A   Clear
4:54 PM 9.0 °F -5.1 °F -11.9 °F 38% 30.22 in 10.0 mi NNW 10.4 mph 21.9 mph N/A   Clear
5:54 PM 7.0 °F -7.5 °F -11.0 °F 44% 30.26 in 10.0 mi NW 10.4 mph 20.7 mph N/A   Clear
6:54 PM 5.0 °F -9.1 °F -11.9 °F 46% 30.32 in 10.0 mi WNW 9.2 mph - N/A   Clear
7:54 PM 3.9 °F -13.0 °F -13.0 °F 46% 30.35 in 10.0 mi West 12.7 mph 16.1 mph N/A   Clear
8:54 PM 3.0 °F -10.5 °F -16.1 °F 41% 30.38 in 10.0 mi NW 8.1 mph - N/A   Clear
9:54 PM 1.9 °F -9.2 °F -16.1 °F 43% 30.41 in 10.0 mi WNW 5.8 mph - N/A   Clear
10:54 PM 1.9 °F -9.2 °F -16.1 °F 43% 30.40 in 10.0 mi WNW 5.8 mph - 0.00 in   Clear
11:54 PM 1.0 °F -8.7 °F -15.0 °F 47% 30.41 in 10.0 mi West 4.6 mph - 0.00 in   Clear